Regional Weather Roundup
Issued by NWS

Home | Current Version | Previous Version | Text Only | Print | Product List | Glossary Off
Versions: 1 2 3 4 5 6 7 8 9 10 11 12 13 14 15 16 17 18 19 20 21 22 23 24 25 26 27 28 29 30 31 32 33 34 35 36 37 38 39 40 41 42 43 44 45 46 47 48 49 50

000
ASUS43 KLOT 240108
RWRIL

ILLINOIS REGIONAL WEATHER ROUNDUP
NATIONAL WEATHER SERVICE CHICAGO/ROMEOVILLE IL
800 PM CDT SAT JUL 23 2016

NOTE: "FAIR" INDICATES FEW OR NO CLOUDS BELOW 12,000 FEET WITH NO
SIGNIFICANT WEATHER AND/OR OBSTRUCTIONS TO VISIBILITY.

* THESE STATIONS ARE NOT UNDER NWS QUALITY CONTROL. THEY ALSO MAY NOT
  REPORT WEATHER SUCH AS PRECIPITATION OR FOG.

ILZ001-002-007-009-015-016-024-240200-
NORTHWEST ILLINOIS

CITY           SKY/WX    TMP DP  RH WIND       PRES   REMARKS
MOLINE         CLOUDY    86  79  79 E7        29.87F HX  99
STERLING*      CLOUDY    78  70  76 NW28G39   29.95  HX  80
SAVANNA*       TSTM      71  69  91 E5        29.89F
$$

ILZ003-004-008-010-011-017-018-240200-
NORTH CENTRAL ILLINOIS

CITY           SKY/WX    TMP DP  RH WIND       PRES   REMARKS
ROCKFORD       TSTM      75  72  90 N14       29.97R
FREEPORT*      TSTM      71  70  97 CALM      29.97R
ROCHELLE*      CLOUDY    74  70  85 E6        29.93S
DE KALB*       CLOUDY    74  69  84 E9        29.95S
$$

ILZ005-006-012>014-019>023-240200-
NORTHEAST ILLINOIS

CITY           SKY/WX    TMP DP  RH WIND       PRES   REMARKS
CHICAGO-OHARE  LGT RAIN  72  69  90 E13       29.95F
CHICAGO-MIDWAY CLOUDY    75  70  84 NE15G22   29.97S
AURORA         CLOUDY    77  71  82 E7        29.94F
LANSING*       CLOUDY    75  68  80 NE7G23    29.99R
JOLIET*        CLOUDY    83  75  77 NE10      29.95R HX  89
WAUKEGAN       LGT RAIN  71  68  90 SE9       29.91F
DUPAGE AIRPORT CLOUDY    73  70  90 E9        29.95R
WHEELING       LGT RAIN  72  68  87 E8        29.95F
MORRIS*        CLOUDY    83  78  87 E3        29.92R HX  92
ROMEOVILLE*    CLOUDY    77  68  74 NE14G21   29.96R
NORTHERLY ISL    N/A     70  68  93 NE18        N/A
$$

LMZ740>746-240200-
SOUTHERN LAKE MICHIGAN

STATION/POSITION SKY/WX   TEMP    WIND        PRES    VSBY  WAVE
                          AIR SEA DIR/SP/G                  HT/PER
                          (F)     (DEG/KT/KT) (MB)    (MI)  (FT/S)
SOUTHERN BUOY              77 76  130/  8/ 10 1013.4F         0
WILMETTE HARBOR            67 59  150/ 12/ 17   N/A           2/ 2
HARRISON CRIB              73      20/ 36/ 42   N/A
BURNHAM HARBOR             70      40/ 12/ 32   N/A
CALUMET HARBOR                    310/ 12/ 18 1014.8
BURNS HARBOR               81      60/  8/ 12 1014.2R
MICHIGAN CITY              84      40/  6/  6   N/A
MICHIGAN CITY 6N           74 75  330/ 23/ 37   N/A           2/ 3
ST. JOSEPH                 78 76   20/ 10/ 14 1013.3F         1
$$

ILZ025>027-034>036-040-047-049-050-058-095>099-240200-
WEST-CENTRAL ILLINOIS

CITY           SKY/WX    TMP DP  RH WIND       PRES   REMARKS
QUINCY         PTCLDY    87  80  79 S6        29.89R HX 103
GALESBURG*     PTCLDY    84  79  83 SE3       29.88F HX  96
MACOMB*        PTCLDY    85  80  85 S6        29.90S HX  98
JACKSONVILLE*  CLEAR     86  76  72 S6        29.90S HX  95
PITTSFIELD*    CLEAR     84  80  88 SE5       29.91S HX  97
$$

ILZ028>032-037-038-041>044-048-051>054-059>061-240200-
CENTRAL ILLINOIS

CITY           SKY/WX    TMP DP  RH WIND       PRES   REMARKS
PONTIAC        CLOUDY    83  80  92 SE3       29.93R HX  96
BLOOMINGTON    CLEAR     83  78  85 SE3       29.95R HX  93
DECATUR        CLEAR     86  76  71 S7        29.92F HX  96
PEORIA         CLEAR     87  78  74 S7        29.89S HX 100
LACON*         CLOUDY    83  77  81 SE5       29.88F HX  93
LINCOLN*       CLEAR     85  80  82 SE3       29.91R HX  99
SPRINGFIELD    CLEAR     86  76  71 S8        29.91S HX  96
TAYLORVILLE    CLEAR     83  78  83 NE6       29.92S HX  94
$$

ILZ033-039-045-046-055>057-062-063-240200-
EAST-CENTRAL ILLINOIS

CITY           SKY/WX    TMP DP  RH WIND       PRES   REMARKS
CHAMPAIGN      CLEAR     83  77  82 SE6       29.93F HX  92
MATTOON        PTCLDY    83  77  82 S5        29.93S HX  92
PARIS*         PTCLDY    82  80  93 CALM      29.94F HX  93
$$

ILZ079-100>102-240200-
SOUTHWEST ILLINOIS

CITY           SKY/WX    TMP DP  RH WIND       PRES   REMARKS
BELLEVILLE     CLEAR     87  79  76 CALM      29.91R HX 101
CAHOKIA*       CLEAR     88  75  65 SE5       29.91R HX  97
SPARTA*        CLEAR     87  75  67 CALM      29.94R HX  96
$$

ILZ064>066-069>071-074>076-080>082-084>086-088>090-092>094-240200-
SOUTH-CENTRAL ILLINOIS

CITY           SKY/WX    TMP DP  RH WIND       PRES   REMARKS
CARBONDALE     PTCLDY    87  79  76 CALM      29.93R HX 101
CAIRO*         CLEAR     85  78  78 SE3       29.92R HX  96
EFFINGHAM*     CLEAR     85  80  85 CALM      29.95R HX  98
MARION         PTCLDY    88  79  74 CALM      29.94R HX 102
MT. VERNON     CLEAR     84  73  70 CALM      29.94R HX  91
CENTRALIA*     CLEAR     86  79  79 E3        29.93R HX  99
SALEM*         CLEAR     87  75  68 CALM      29.94R HX  96
METROPOLIS*    CLEAR     85  78  80 CALM      29.94R HX  97
$$

ILZ067-068-072-073-078-083-087-091-240200-
SOUTHEAST ILLINOIS

CITY           SKY/WX    TMP DP  RH WIND       PRES   REMARKS
LAWRENCEVILLE  CLEAR     86  78  77 CALM      29.94R HX  98
FLORA*         CLEAR     85  80  84 SE3       29.94R HX  99
FAIRFIELD*     CLEAR     84  78  82 CALM      29.92S HX  95
HARRISBURG*    CLEAR     84  80  87 CALM      29.94R HX  97
ROBINSON*      PTCLDY    83  79  86 CALM      29.95R HX  94
CARMI*         CLEAR     84  82  93 CALM      29.93R FOG     HX  99
$$

ABBREVIATIONS USED IN REMARKS
   TC - TEMPERATURE IN CELSIUS
  WCI - WIND CHILL INDEX
   HX - HEAT INDEX
  VSB - VISIBILITY
$$




USA.gov is the U.S. government's official web portal to all federal, state and local government web resources and services.